Flag for Guinea-Bissau Weather past 2 weeks in Bissau, Guinea-Bissau

Now
81 °F

Partly sunny.


Feels Like: 87 °F
Forecast: 79 / 92 °F
Wind: 7 mph from North

Location: Bissau Aeroport

Current Time: Jul 6, 2015 at 9:24:01 AM

Latest Report: Jul 6, 2015 at 9:00 AM


Visibility: N/A

Pressure: 29.86 "Hg

Humidity: 89%

Dew point: 77 °F

Location of BissauLocation

Historic Weather in Bissau — Graph

°F

Bissau temperature yesterday

Maximum temperature yesterday: 91 °F (at 2:00 PM)
Minimum temperature yesterday: 81 °F (at 2:00 AM)
Average temperature yesterday: 86 °F

Past Weeks' High & Low Weather Summary

 TemperatureHumidityPressure
High91 °F (Jun 22, 5:00 PM)100% (Jul 1, 6:00 AM)32.87 "Hg (Jul 1, 6:00 AM)
Low72 °F (Jun 23, 8:00 AM)52% (Jun 22, 5:00 PM)29.80 "Hg (Jul 5, 4:00 PM)
Average83 °F75%29.95 "Hg
* Reported Jun 21 8:00 AM — Jul 6 8:00 AM, Bissau, Weather by CustomWeather, © 2015

Note: Actual official high and low records may vary slightly from our data, if they occured in-between our weather recording intervals... More about our weather records

Advertising

Bissau weather history for previous 24 hours

 ConditionsComfort  
Time TempWeatherWind HumidityBarometerVisibility
8:00 AM
Mon, Jul 6
79 °FScattered clouds.3 mph94%29.86 "Hg6 mi
7:00 AM79 °FScattered clouds.3 mph94%29.83 "Hg6 mi
3:00 AM81 °FWarm.3 mph89%29.83 "HgN/A
2:00 AM81 °FClear.3 mph89%29.83 "Hg10 mi
1:00 AM81 °FClear.5 mph89%29.86 "Hg10 mi
12:00 AM81 °FClear.2 mph89%29.86 "Hg10 mi
11:00 PM
Sun, Jul 5
82 °FClear.3 mph84%29.86 "Hg10 mi
10:00 PM82 °FClear.3 mph84%29.83 "Hg10 mi
9:00 PM82 °FClear.5 mph84%29.83 "Hg10 mi
8:00 PM84 °FClear.6 mph74%29.83 "Hg10 mi
7:00 PM88 °FSunny.10 mph62%29.80 "Hg10 mi
6:00 PM90 °FScattered clouds.12 mph63%29.80 "HgN/A
5:00 PM91 °FPassing clouds.9 mph56%29.80 "HgN/A
4:00 PM91 °FScattered clouds.9 mph56%29.80 "HgN/A
3:00 PM91 °FScattered clouds.9 mph59%29.83 "HgN/A
2:00 PM91 °FScattered clouds.7 mph56%29.86 "HgN/A
1:00 PM90 °FScattered clouds.9 mph59%29.86 "HgN/A
12:00 PM88 °FPartly sunny.9 mph66%29.89 "HgN/A
11:00 AM86 °FPartly sunny.7 mph75%29.89 "HgN/A
10:00 AM84 °FPartly sunny.7 mph74%29.89 "HgN/A
9:00 AM82 °FScattered clouds.5 mph84%29.89 "HgN/A
Weather by CustomWeather, © 2015

See weather overviewHow to use our weather pages